• Join FlightAware (Why Join?)
  • Login
  • US Flag 
03:13PM EDT


 

Airport Tracker/Info


-or-


 

Live Flight TrackerFlight Track Log ✈ EJA312 ✈ 13-Oct-2013 ✈ KMDW - KSDF

Flight Track Log - Related Links

Times and Time Zones

All times are in EDT time to prevent confusion due to time zone crossing. See the EJA312 flight status page for this flight to view local times or setup timezone preferences in your user account.

Time Position Orientation Groundspeed Altitude Reporting Facility
EDT Latitude Longitude Course Direction KTS MPH feet Rate Location/Type
05:01PM 41.7767 -87.7917 188° South 192 221 2,900  Level Chicago Center
05:02PM 41.7061 -87.8050 188° South 239 275 5,500 3,360 Climbing Chicago Center
05:03PM 41.6336 -87.7794 165° South 263 303 9,900 3,180 Climbing Chicago Center
05:04PM 41.5517 -87.7597 170° South 293 337 12,100 2,580 Climbing Chicago Center
05:05PM 41.4647 -87.7364 169° South 312 359 15,300 2,880 Climbing Chicago Center
05:06PM 41.3744 -87.7242 174° South 326 375 18,100 2,880 Climbing Chicago Center
05:07PM 41.2867 -87.7253 181° South 315 362 21,300 2,700 Climbing Chicago Center
05:08PM 41.2019 -87.7264 181° South 307 353 23,800 1,740 Climbing Chicago Center
05:09PM 41.0936 -87.7061 172° South 327 376 25,000 540 Climbing Chicago Center
05:10PM 40.9844 -87.6856 172° South 386 444 25,000  Level Chicago Center
05:11PM 40.8661 -87.6622 172° South 422 486 25,000  Level Chicago Center
05:12PM 40.7442 -87.6394 172° South 441 507 25,000  Level Chicago Center
05:13PM 40.6211 -87.6156 172° South 447 514 25,000  Level Chicago Center
05:14PM 40.4778 -87.5903 172° South 436 502 25,000  Level Chicago Center
05:15PM 40.3628 -87.5692 172° South 423 487 25,000  Level Chicago Center
05:17PM 40.2258 -87.5272 167° South 426 490 25,000  Level Chicago Center
05:18PM 40.1206 -87.4861 163° South 425 489 25,000  Level Chicago Center
05:18PM 40.0258 -87.4528 165° South 426 490 25,000  Level Indianapolis Center
05:19PM 39.9133 -87.4103 164° South 425 489 25,000  Level Indianapolis Center
05:20PM 39.8008 -87.3661 163° South 425 489 25,000 -120 Level Indianapolis Center
05:21PM 39.6650 -87.3150 164° South 426 490 24,800 -540 Descending Indianapolis Center
05:22PM 39.5492 -87.2711 164° South 435 501 23,900 -900 Descending Indianapolis Center
05:23PM 39.4308 -87.2244 163° South 443 510 23,000 -480 Descending Indianapolis Center
05:24PM 39.3183 -87.1747 161° South 435 501 23,000  Level Indianapolis Center
05:26PM 39.2097 -87.1272 161° South 419 482 23,000  Level Indianapolis Center
05:27PM 39.1164 -87.0083 135° Southeast 418 481 23,000 -180 Level Indianapolis Center
05:28PM 39.0472 -86.8869 126° Southeast 418 481 22,700 -1,440 Descending Indianapolis Center
05:29PM 38.9744 -86.7606 127° Southeast 425 489 20,100 -2,400 Descending Indianapolis Center
05:30PM 38.9031 -86.6328 126° Southeast 434 499 17,800 -2,340 Descending Indianapolis Center
05:31PM 38.8350 -86.5136 126° Southeast 420 483 15,300 -2,400 Descending Indianapolis Center
05:32PM 38.7689 -86.3986 126° Southeast 404 465 12,900 -2,160 Descending Indianapolis Center
05:33PM 38.6831 -86.3175 144° Southeast 386 444 10,900 -1,920 Descending Indianapolis Center
05:34PM 38.5969 -86.2394 145° Southeast 324 373 9,000 -1,680 Descending Indianapolis Center
05:35PM 38.5308 -86.1781 144° Southeast 296 341 7,500 -1,440 Descending Indianapolis Center
05:36PM 38.4622 -86.1172 145° Southeast 297 342 6,100 -780 Descending Indianapolis Center
05:37PM 38.3961 -86.0600 146° Southeast 290 334 6,000 -60 Descending Indianapolis Center
05:38PM 38.3311 -86.0017 145° Southeast 286 329 6,000  Level Indianapolis Center
05:39PM 38.2664 -85.9450 145° Southeast 282 325 6,000  Level Indianapolis Center
05:40PM 38.1997 -85.8861 145° Southeast 286 329 6,000 -720 Level Indianapolis Center
05:41PM 38.1344 -85.8325 147° Southeast 284 327 4,600 -1,500 Descending Indianapolis Center
05:42PM 38.0864 -85.7789 139° Southeast 226 260 2,900 -1,020 Descending Indianapolis Center
05:43PM 38.1042 -85.7244 67° East 209 241 2,500 -780 Descending Indianapolis Center
05:45PM 38.1500 -85.7167 North 116 133 800 -1,020 Descending Louisville TRACON